Location: Peebles
(55.6412°N, 3.1714°W)
Time: 04:01:00
(UTC+01:00)

CARTOSAT-1 - Visible Passes

Search period start: 26 June 2022 00:00
Search period end: 06 July 2022 00:00
Orbit: 615 x 617 km, 97.7° (Epoch: 25 June)

Date Brightness Start Highest point End Pass type
(mag) Time Alt. Az. Time Alt. Az. Time Alt. Az.
26 Jun 6.0 23:25:51 10° SW 23:28:39 17° W 23:31:28 10° NW visible
27 Jun 6.2 23:43:10 10° WSW 23:44:58 12° W 23:46:46 10° WNW visible
30 Jun 5.3 22:52:48 10° SSW 22:56:36 29° W 23:00:25 10° NNW visible
01 Jul 5.7 23:09:27 10° SW 23:12:50 22° W 23:16:14 10° NW visible
02 Jul 6.0 23:26:20 10° SW 23:29:06 16° W 23:31:52 10° NW visible
03 Jul 6.2 23:43:41 10° WSW 23:45:24 12° W 23:47:07 10° WNW visible
